sat.trackr.live / text

‹ back to catalog

STARLINK-37183

NORAD 68349 · 2026-059AE

PAYLOAD ACTIVE UNKNOWN

§ Identity

Operator
Country
US
Launch date
2026-03-22
Launch site
AFETR
Launch vehicle
Mass (kg)
RCS (m²)

Purposes: comms

External: N2YO · Heavens-Above · Gunter

§ Orbital elements

Epoch: 2026-05-24T23:54:17.455104Z

Period
94.10 min
Inclination
53.1584°
Eccentricity
0.0000497
Mean motion
15.30210043 rev/d
Perigee alt
474.8 km
Apogee alt
475.5 km
Semi-major
6,853.3 km
B*
6.2703e-4
RAAN
353.4551°
Arg perigee
325.2502°
Mean anomaly
34.8466°
Rev number
986

§ Raw data

STARLINK-371831 68349U 26059AE  26144.99603536  .00018263  00000+0  62703-3 0  99902 68349  53.1584 353.4551 0000497 325.2502  34.8466 15.30210043  9866

JSON: /api/v1/satellites/68349 · /tle

For live sub-satellite position, see the globe view (requires WebGL).

§ Visibility from observer

Set your observer location to see the next 7 days of passes ≥ 10°. The values pass through the URL so the page stays shareable.

No JS? Fill the form by hand. The geolocation button needs JavaScript.